Index of /20260422/WXO-DD/model_gdps/15km/00/219
Name Last modified Size Description
Parent Directory -
20260422T00Z_MSC_GDPS_AirTemp_AGL-120m_LatLon0.15_PT219H.grib2 2026-04-22 04:46 905K
20260422T00Z_MSC_GDPS_AirTemp_AGL-2m_LatLon0.15_PT219H.grib2 2026-04-22 04:46 1.0M
20260422T00Z_MSC_GDPS_AirTemp_AGL-40m_LatLon0.15_PT219H.grib2 2026-04-22 04:46 808K
20260422T00Z_MSC_GDPS_AirTemp_AGL-80m_LatLon0.15_PT219H.grib2 2026-04-22 04:46 914K
20260422T00Z_MSC_GDPS_AirTemp_IsbL-0001_LatLon0.15_PT219H.grib2 2026-04-22 04:46 714K
20260422T00Z_MSC_GDPS_AirTemp_IsbL-0005_LatLon0.15_PT219H.grib2 2026-04-22 04:46 749K
20260422T00Z_MSC_GDPS_AirTemp_IsbL-0500_LatLon0.15_PT219H.grib2 2026-04-22 04:46 1.0M
20260422T00Z_MSC_GDPS_AirTemp_IsbL-0700_LatLon0.15_PT219H.grib2 2026-04-22 04:46 947K
20260422T00Z_MSC_GDPS_AirTemp_IsbL-0850_LatLon0.15_PT219H.grib2 2026-04-22 04:46 1.1M
20260422T00Z_MSC_GDPS_AirTemp_IsbL-0925_LatLon0.15_PT219H.grib2 2026-04-22 04:46 1.1M
20260422T00Z_MSC_GDPS_AirTemp_IsbL-1000_LatLon0.15_PT219H.grib2 2026-04-22 04:46 1.1M
20260422T00Z_MSC_GDPS_Albedo_Sfc_LatLon0.15_PT219H.grib2 2026-04-22 04:46 245K
20260422T00Z_MSC_GDPS_ConvectivePrecip-Accum_Sfc_LatLon0.15_PT219H.grib2 2026-04-22 04:46 3.9M
20260422T00Z_MSC_GDPS_DewPointDepression_AGL-2m_LatLon0.15_PT219H.grib2 2026-04-22 04:46 757K
20260422T00Z_MSC_GDPS_DewPointDepression_IsbL-0500_LatLon0.15_PT219H.grib2 2026-04-22 04:46 1.0M
20260422T00Z_MSC_GDPS_DewPointDepression_IsbL-0700_LatLon0.15_PT219H.grib2 2026-04-22 04:46 1.1M
20260422T00Z_MSC_GDPS_DewPointDepression_IsbL-0850_LatLon0.15_PT219H.grib2 2026-04-22 04:46 1.1M
20260422T00Z_MSC_GDPS_DewPointDepression_IsbL-0925_LatLon0.15_PT219H.grib2 2026-04-22 04:46 1.0M
20260422T00Z_MSC_GDPS_DewPointDepression_IsbL-1000_LatLon0.15_PT219H.grib2 2026-04-22 04:46 970K
20260422T00Z_MSC_GDPS_DewPoint_AGL-2m_LatLon0.15_PT219H.grib2 2026-04-22 04:46 601K
20260422T00Z_MSC_GDPS_DownwardLongwaveRadiationFlux-Accum_Sfc_LatLon0.15_PT219H.grib2 2026-04-22 04:46 727K
20260422T00Z_MSC_GDPS_DownwardShortwaveRadiationFlux-Accum_Sfc_LatLon0.15_PT219H.grib2 2026-04-22 04:46 917K
20260422T00Z_MSC_GDPS_FreezingRain-Accum_Sfc_LatLon0.15_PT219H.grib2 2026-04-22 04:46 542K
20260422T00Z_MSC_GDPS_GeopotentialHeight_IsbL-0001_LatLon0.15_PT219H.grib2 2026-04-22 04:46 381K
20260422T00Z_MSC_GDPS_GeopotentialHeight_IsbL-0005_LatLon0.15_PT219H.grib2 2026-04-22 04:46 487K
20260422T00Z_MSC_GDPS_GeopotentialHeight_IsbL-0500_LatLon0.15_PT219H.grib2 2026-04-22 04:46 534K
20260422T00Z_MSC_GDPS_GeopotentialHeight_IsbL-0700_LatLon0.15_PT219H.grib2 2026-04-22 04:46 688K
20260422T00Z_MSC_GDPS_GeopotentialHeight_IsbL-0850_LatLon0.15_PT219H.grib2 2026-04-22 04:46 713K
20260422T00Z_MSC_GDPS_GeopotentialHeight_IsbL-0925_LatLon0.15_PT219H.grib2 2026-04-22 04:46 737K
20260422T00Z_MSC_GDPS_GeopotentialHeight_IsbL-1000_LatLon0.15_PT219H.grib2 2026-04-22 04:46 792K
20260422T00Z_MSC_GDPS_IcePellets-Accum_Sfc_LatLon0.15_PT219H.grib2 2026-04-22 04:46 203K
20260422T00Z_MSC_GDPS_LatentHeatNetFlux_Sfc_LatLon0.15_PT219H.grib2 2026-04-22 04:46 676K
20260422T00Z_MSC_GDPS_NetLongwaveRadiationFlux-Accum_Sfc_LatLon0.15_PT219H.grib2 2026-04-22 04:46 913K
20260422T00Z_MSC_GDPS_NetShortwaveRadiationFlux-Accum_Sfc_LatLon0.15_PT219H.grib2 2026-04-22 04:46 896K
20260422T00Z_MSC_GDPS_O3MixingRatio_LatLon0.15_PT219H.grib2 2026-04-22 05:00 1.9M
20260422T00Z_MSC_GDPS_O3_EAtm_LatLon0.15_PT219H.grib2 2026-04-22 05:00 2.4M
20260422T00Z_MSC_GDPS_PlanetaryBoundaryLayerHeight_Sfc_LatLon0.15_PT219H.grib2 2026-04-22 04:46 2.4M
20260422T00Z_MSC_GDPS_Precip-Accum_Sfc_LatLon0.15_PT219H.grib2 2026-04-22 04:46 5.1M
20260422T00Z_MSC_GDPS_PrecipRate_Sfc_LatLon0.15_PT219H.grib2 2026-04-22 04:46 3.1M
20260422T00Z_MSC_GDPS_Pressure_MSL_LatLon0.15_PT219H.grib2 2026-04-22 04:46 825K
20260422T00Z_MSC_GDPS_Pressure_Sfc_LatLon0.15_PT219H.grib2 2026-04-22 04:46 1.1M
20260422T00Z_MSC_GDPS_RadiativeTemp_Sfc_LatLon0.15_PT219H.grib2 2026-04-22 04:46 487K
20260422T00Z_MSC_GDPS_Rain-Accum_Sfc_LatLon0.15_PT219H.grib2 2026-04-22 04:46 4.3M
20260422T00Z_MSC_GDPS_RelativeHumidity_AGL-2m_LatLon0.15_PT219H.grib2 2026-04-22 04:46 1.0M
20260422T00Z_MSC_GDPS_Runoff-Accum_Sfc_LatLon0.15_PT219H.grib2 2026-04-22 04:46 132K
20260422T00Z_MSC_GDPS_SensibleHeatNetFlux_Sfc_LatLon0.15_PT219H.grib2 2026-04-22 04:46 626K
20260422T00Z_MSC_GDPS_Snow-Accum_Sfc_LatLon0.15_PT219H.grib2 2026-04-22 04:46 2.0M
20260422T00Z_MSC_GDPS_SnowDepth_Sfc_LatLon0.15_PT219H.grib2 2026-04-22 04:46 1.8M
20260422T00Z_MSC_GDPS_SoilTemp_DBS-0to10cm_LatLon0.15_PT219H.grib2 2026-04-22 04:46 510K
20260422T00Z_MSC_GDPS_SoilTemp_Sfc_LatLon0.15_PT219H.grib2 2026-04-22 04:46 572K
20260422T00Z_MSC_GDPS_SoilVolumetricWaterContent_DBS-0to10cm_LatLon0.15_PT219H.grib2 2026-04-22 04:46 585K
20260422T00Z_MSC_GDPS_SoilVolumetricWaterContent_DBS-0to1cm_LatLon0.15_PT219H.grib2 2026-04-22 04:46 658K
20260422T00Z_MSC_GDPS_SpecificHumidity_AGL-120m_LatLon0.15_PT219H.grib2 2026-04-22 04:46 1.1M
20260422T00Z_MSC_GDPS_SpecificHumidity_AGL-2m_LatLon0.15_PT219H.grib2 2026-04-22 04:46 1.2M
20260422T00Z_MSC_GDPS_SpecificHumidity_AGL-40m_LatLon0.15_PT219H.grib2 2026-04-22 04:46 1.1M
20260422T00Z_MSC_GDPS_SpecificHumidity_AGL-80m_LatLon0.15_PT219H.grib2 2026-04-22 04:46 1.1M
20260422T00Z_MSC_GDPS_SpecificHumidity_IsbL-0001_LatLon0.15_PT219H.grib2 2026-04-22 04:46 1.1M
20260422T00Z_MSC_GDPS_SpecificHumidity_IsbL-0005_LatLon0.15_PT219H.grib2 2026-04-22 04:46 1.2M
20260422T00Z_MSC_GDPS_SpecificHumidity_IsbL-0500_LatLon0.15_PT219H.grib2 2026-04-22 04:46 1.4M
20260422T00Z_MSC_GDPS_SpecificHumidity_IsbL-0700_LatLon0.15_PT219H.grib2 2026-04-22 04:46 1.6M
20260422T00Z_MSC_GDPS_SpecificHumidity_IsbL-0850_LatLon0.15_PT219H.grib2 2026-04-22 04:46 1.9M
20260422T00Z_MSC_GDPS_SpecificHumidity_IsbL-0925_LatLon0.15_PT219H.grib2 2026-04-22 04:46 1.9M
20260422T00Z_MSC_GDPS_SpecificHumidity_IsbL-1000_LatLon0.15_PT219H.grib2 2026-04-22 04:46 1.5M
20260422T00Z_MSC_GDPS_SpecificHumidity_Sfc_LatLon0.15_PT219H.grib2 2026-04-22 04:46 661K
20260422T00Z_MSC_GDPS_Thickness_IsbL-0850to0700_LatLon0.15_PT219H.grib2 2026-04-22 04:46 469K
20260422T00Z_MSC_GDPS_Thickness_IsbL-1000to0500_LatLon0.15_PT219H.grib2 2026-04-22 04:46 377K
20260422T00Z_MSC_GDPS_Thickness_IsbL-1000to0850_LatLon0.15_PT219H.grib2 2026-04-22 04:46 493K
20260422T00Z_MSC_GDPS_TotalCloudCover_Sfc_LatLon0.15_PT219H.grib2 2026-04-22 04:46 825K
20260422T00Z_MSC_GDPS_UVIndex-ClearSky_Sfc_LatLon0.15_PT219H.grib2 2026-04-22 05:00 1.0M
20260422T00Z_MSC_GDPS_UVIndex_Sfc_LatLon0.15_PT219H.grib2 2026-04-22 05:00 1.5M
20260422T00Z_MSC_GDPS_UpwardLongwaveRadiationFlux_NTAtm_LatLon0.15_PT219H.grib2 2026-04-22 04:46 1.1M
20260422T00Z_MSC_GDPS_VerticalVelocity_IsbL-0500_LatLon0.15_PT219H.grib2 2026-04-22 04:46 1.0M
20260422T00Z_MSC_GDPS_VerticalVelocity_IsbL-0700_LatLon0.15_PT219H.grib2 2026-04-22 04:46 1.1M
20260422T00Z_MSC_GDPS_VerticalVelocity_IsbL-0850_LatLon0.15_PT219H.grib2 2026-04-22 04:46 1.3M
20260422T00Z_MSC_GDPS_WindDir_AGL-10m_LatLon0.15_PT219H.grib2 2026-04-22 04:46 1.3M
20260422T00Z_MSC_GDPS_WindDir_AGL-120m_LatLon0.15_PT219H.grib2 2026-04-22 04:46 1.3M
20260422T00Z_MSC_GDPS_WindDir_AGL-40m_LatLon0.15_PT219H.grib2 2026-04-22 04:46 1.4M
20260422T00Z_MSC_GDPS_WindDir_AGL-80m_LatLon0.15_PT219H.grib2 2026-04-22 04:46 1.4M
20260422T00Z_MSC_GDPS_WindDir_IsbL-0001_LatLon0.15_PT219H.grib2 2026-04-22 04:46 688K
20260422T00Z_MSC_GDPS_WindDir_IsbL-0005_LatLon0.15_PT219H.grib2 2026-04-22 04:46 799K
20260422T00Z_MSC_GDPS_WindDir_IsbL-0500_LatLon0.15_PT219H.grib2 2026-04-22 04:46 1.3M
20260422T00Z_MSC_GDPS_WindDir_IsbL-0700_LatLon0.15_PT219H.grib2 2026-04-22 04:46 1.6M
20260422T00Z_MSC_GDPS_WindDir_IsbL-0850_LatLon0.15_PT219H.grib2 2026-04-22 04:46 1.9M
20260422T00Z_MSC_GDPS_WindDir_IsbL-0925_LatLon0.15_PT219H.grib2 2026-04-22 04:46 2.0M
20260422T00Z_MSC_GDPS_WindDir_IsbL-1000_LatLon0.15_PT219H.grib2 2026-04-22 04:46 2.1M
20260422T00Z_MSC_GDPS_WindGust-Max_AGL-10m_LatLon0.15_PT219H.grib2 2026-04-22 04:46 2.2M
20260422T00Z_MSC_GDPS_WindGust-Min_AGL-10m_LatLon0.15_PT219H.grib2 2026-04-22 04:46 2.2M
20260422T00Z_MSC_GDPS_WindGust_AGL-10m_LatLon0.15_PT219H.grib2 2026-04-22 04:46 2.2M
20260422T00Z_MSC_GDPS_WindSpeed_AGL-10m_LatLon0.15_PT219H.grib2 2026-04-22 04:46 1.1M
20260422T00Z_MSC_GDPS_WindSpeed_AGL-120m_LatLon0.15_PT219H.grib2 2026-04-22 04:46 1.2M
20260422T00Z_MSC_GDPS_WindSpeed_AGL-40m_LatLon0.15_PT219H.grib2 2026-04-22 04:46 1.2M
20260422T00Z_MSC_GDPS_WindSpeed_AGL-80m_LatLon0.15_PT219H.grib2 2026-04-22 04:46 1.2M
20260422T00Z_MSC_GDPS_WindSpeed_IsbL-0001_LatLon0.15_PT219H.grib2 2026-04-22 04:46 640K
20260422T00Z_MSC_GDPS_WindSpeed_IsbL-0005_LatLon0.15_PT219H.grib2 2026-04-22 04:46 603K
20260422T00Z_MSC_GDPS_WindSpeed_IsbL-0500_LatLon0.15_PT219H.grib2 2026-04-22 04:46 1.1M
20260422T00Z_MSC_GDPS_WindSpeed_IsbL-0700_LatLon0.15_PT219H.grib2 2026-04-22 04:46 1.5M
20260422T00Z_MSC_GDPS_WindSpeed_IsbL-0850_LatLon0.15_PT219H.grib2 2026-04-22 04:46 1.7M
20260422T00Z_MSC_GDPS_WindSpeed_IsbL-0925_LatLon0.15_PT219H.grib2 2026-04-22 04:46 1.8M
20260422T00Z_MSC_GDPS_WindSpeed_IsbL-1000_LatLon0.15_PT219H.grib2 2026-04-22 04:46 1.8M
20260422T00Z_MSC_GDPS_WindU_AGL-10m_LatLon0.15_PT219H.grib2 2026-04-22 04:46 1.3M
20260422T00Z_MSC_GDPS_WindU_AGL-120m_LatLon0.15_PT219H.grib2 2026-04-22 04:46 1.0M
20260422T00Z_MSC_GDPS_WindU_AGL-40m_LatLon0.15_PT219H.grib2 2026-04-22 04:46 973K
20260422T00Z_MSC_GDPS_WindU_AGL-80m_LatLon0.15_PT219H.grib2 2026-04-22 04:46 1.0M
20260422T00Z_MSC_GDPS_WindU_IsbL-0001_LatLon0.15_PT219H.grib2 2026-04-22 04:46 498K
20260422T00Z_MSC_GDPS_WindU_IsbL-0005_LatLon0.15_PT219H.grib2 2026-04-22 04:46 681K
20260422T00Z_MSC_GDPS_WindU_IsbL-0500_LatLon0.15_PT219H.grib2 2026-04-22 04:46 1.1M
20260422T00Z_MSC_GDPS_WindU_IsbL-0700_LatLon0.15_PT219H.grib2 2026-04-22 04:46 1.2M
20260422T00Z_MSC_GDPS_WindU_IsbL-0850_LatLon0.15_PT219H.grib2 2026-04-22 04:46 1.4M
20260422T00Z_MSC_GDPS_WindU_IsbL-0925_LatLon0.15_PT219H.grib2 2026-04-22 04:46 1.5M
20260422T00Z_MSC_GDPS_WindU_IsbL-1000_LatLon0.15_PT219H.grib2 2026-04-22 04:46 1.4M
20260422T00Z_MSC_GDPS_WindV_AGL-10m_LatLon0.15_PT219H.grib2 2026-04-22 04:46 1.3M
20260422T00Z_MSC_GDPS_WindV_AGL-120m_LatLon0.15_PT219H.grib2 2026-04-22 04:46 1.0M
20260422T00Z_MSC_GDPS_WindV_AGL-40m_LatLon0.15_PT219H.grib2 2026-04-22 04:46 971K
20260422T00Z_MSC_GDPS_WindV_AGL-80m_LatLon0.15_PT219H.grib2 2026-04-22 04:46 1.0M
20260422T00Z_MSC_GDPS_WindV_IsbL-0001_LatLon0.15_PT219H.grib2 2026-04-22 04:46 775K
20260422T00Z_MSC_GDPS_WindV_IsbL-0005_LatLon0.15_PT219H.grib2 2026-04-22 04:46 754K
20260422T00Z_MSC_GDPS_WindV_IsbL-0500_LatLon0.15_PT219H.grib2 2026-04-22 04:46 1.1M
20260422T00Z_MSC_GDPS_WindV_IsbL-0700_LatLon0.15_PT219H.grib2 2026-04-22 04:46 1.2M
20260422T00Z_MSC_GDPS_WindV_IsbL-0850_LatLon0.15_PT219H.grib2 2026-04-22 04:46 1.4M
20260422T00Z_MSC_GDPS_WindV_IsbL-0925_LatLon0.15_PT219H.grib2 2026-04-22 04:46 1.5M
20260422T00Z_MSC_GDPS_WindV_IsbL-1000_LatLon0.15_PT219H.grib2 2026-04-22 04:46 1.4M